Lid_Strength_Index
3 3 3 3 3 4 4 4 4 4 4 4 4 5 5 5 5 5 5 4 4 4 4 4 3 4 5 10 10 6 3 3 1 3 4 6 7 7 11 11 11 12 11 10 10 10 11
3 3 3 3 4 4 4 4 4 5 5 4 5 5 5 5 5 5 5 4 4 4 4 4 4 3 8 14 7 6 6 5 3 4 5 6 7 7 9 11 12 11 11 11 10 10 10
3 3 3 4 4 4 4 5 5 5 5 5 5 5 6 5 5 5 5 4 5 5 4 3 3 5 9 12 7 6 6 6 3 4 6 4 6 8 9 11 10 11 13 11 12 11 11
3 3 4 4 4 4 5 5 5 5 5 5 5 6 5 5 5 5 5 5 5 4 3 3 3 6 12 6 6 7 8 7 6 3 5 4 5 8 10 10 12 14 14 16 12 12 11
4 4 4 5 5 5 5 5 5 5 5 5 6 5 5 5 5 5 5 6 5 3 3 4 7 9 13 6 10 9 9 9 8 4 4 5 7 9 10 13 14 15 17 17 15 12 12
4 5 5 5 5 5 5 5 5 5 5 6 6 5 5 5 5 6 6 7 7 8 9 5 10 13 12 13 10 9 9 9 9 6 6 7 9 11 13 13 18 16 17 17 16 13 12
5 5 5 5 5 6 5 5 6 6 6 6 6 5 5 5 6 6 9 12 14 15 13 16 15 14 13 10 9 12 11 10 9 9 11 10 12 14 12 12 12 13 14 15 15 12 13
5 5 6 6 6 6 6 6 6 6 5 6 6 5 5 5 6 7 10 13 13 12 16 13 13 13 12 11 13 14 12 13 12 14 12 13 14 12 10 11 12 13 14 15 13 12 13
6 6 6 6 6 6 6 6 6 6 6 6 6 6 5 6 7 10 13 12 10 10 16 16 13 13 14 12 13 15 13 14 13 15 13 14 12 10 11 12 13 13 14 14 15 12 12
6 6 6 6 6 6 6 6 6 6 6 6 6 6 6 6 12 12 14 11 10 9 21 17 16 14 14 14 15 12 12 13 14 14 13 13 10 11 13 14 14 16 11 12 13 15 18
6 6 6 6 6 6 6 6 6 6 6 6 6 6 6 7 13 15 13 11 11 11 26 17 16 12 14 16 15 14 10 13 15 15 14 15 13 14 14 13 12 14 12 14 13 15 15
6 6 6 6 6 6 6 6 6 6 6 6 6 6 6 11 14 13 12 12 12 20 28 18 16 17 17 15 14 12 12 10 10 12 13 13 11 10 10 11 11 10 13 14 13 15 20
6 6 6 7 6 6 6 6 6 6 6 6 6 7 9 11 15 12 13 15 22 25 18 20 20 18 17 17 16 14 13 15 13 16 16 13 12 10 9 13 10 11 15 18 20 20 20
6 6 7 7 6 6 6 6 6 6 6 6 7 9 11 12 13 14 15 19 26 21 21 17 17 16 17 15 15 13 14 15 11 13 15 17 18 12 10 11 13 13 14 19 23 22 20
7 7 7 7 7 7 7 6 6 6 6 6 9 15 15 13 13 15 19 25 23 20 18 18 17 19 18 14 14 14 14 14 12 10 14 15 16 10 10 9 11 13 15 12 18 17 19
7 7 7 7 7 7 7 7 7 7 7 7 15 17 16 13 14 17 20 21 20 16 16 16 19 16 18 15 15 15 14 11 11 9 8 14 17 12 10 9 9 11 10 16 16 22 22
7 7 7 7 7 8 8 7 7 7 7 8 17 20 16 13 15 18 23 21 18 15 14 15 16 15 15 15 14 15 14 11 10 10 10 11 13 14 11 12 13 12 16 15 15 16 21
7 7 7 7 8 8 8 8 7 7 7 12 18 21 14 15 20 21 22 19 14 14 13 13 13 12 14 12 13 13 13 12 8 9 12 11 16 17 15 12 12 15 18 19 19 20 18
7 7 8 8 8 8 8 8 8 8 8 15 19 19 15 15 22 22 19 17 14 13 13 13 12 10 11 12 15 13 12 8 8 10 11 12 14 18 16 14 13 19 19 19 20 20 24
8 8 8 8 8 8 8 8 8 8 8 16 19 22 18 18 18 20 18 17 16 12 12 11 10 9 11 12 11 14 12 9 8 10 7 9 14 16 19 17 16 21 22 21 20 22 25
8 8 8 8 8 8 9 8 8 9 8 15 19 20 18 21 18 18 16 15 16 15 12 10 11 10 11 15 13 14 12 12 11 9 10 10 19 18 22 22 21 22 24 24 26 24 25
8 9 8 8 8 9 9 9 8 9 9 15 19 20 19 19 17 17 16 17 15 14 13 13 12 12 10 15 12 16 14 14 14 13 13 11 16 16 23 22 23 26 24 24 26 26 25
8 8 8 8 8 9 9 9 9 9 10 16 15 14 16 17 16 20 17 17 15 14 14 11 13 16 16 12 12 12 11 14 16 17 19 18 21 17 24 21 21 29 28 25 27 27 26
8 8 8 8 9 9 9 9 9 8 9 13 14 14 18 22 18 18 17 17 17 15 19 14 13 18 12 10 10 12 13 15 16 18 19 22 21 17 22 21 32 26 23 24 27 26 25
8 8 8 9 9 9 10 10 9 8 8 12 12 14 17 25 19 18 17 18 18 17 18 14 13 14 12 13 17 18 14 14 17 17 20 22 24 24 23 28 28 25 26 27 28 29 25
9 9 9 10 10 10 10 9 9 8 8 12 13 11 16 22 23 18 19 20 24 23 21 16 13 13 13 19 20 22 23 21 23 23 18 21 23 25 26 28 31 28 24 23 25 31 24
9 10 10 10 10 10 10 9 8 8 8 12 13 10 17 23 22 21 25 24 21 24 23 20 19 17 16 23 23 26 24 25 30 30 29 29 30 29 30 35 32 26 25 22 31 30 25
10 10 11 11 11 10 9 9 8 8 8 12 14 12 16 22 23 20 19 23 23 25 30 23 22 20 20 23 24 23 28 28 30 30 32 34 37 36 36 34 31 24 25 29 30 29 27
11 11 11 11 10 9 9 9 8 7 8 10 15 12 12 19 21 17 18 18 20 21 23 25 21 22 22 25 25 25 28 29 33 34 29 32 33 34 32 30 32 32 30 30 30 28 26